Regional Weather Roundup
Issued by NWS

Home | Current Version | Previous Version | Text Only | Print | Product List | Glossary On
Versions: 1 2 3 4 5 6 7 8 9 10 11 12 13 14 15 16 17 18 19 20 21 22 23 24 25 26 27 28 29 30 31 32 33 34 35 36 37 38 39 40 41 42 43 44 45 46 47 48 49 50
000
ASUS44 KOUN 271610
RWROK

WEATHER ROUNDUP FOR OKLAHOMA
NATIONAL WEATHER SERVICE NORMAN OK
1100 AM CDT SAT MAY 27 2017

NOTE: "FAIR" INDICATES FEW OR NO CLOUDS BELOW 12,000 FEET WITH NO
      SIGNIFICANT WEATHER AND/OR OBSTRUCTIONS TO VISIBILITY.

OKZ001>007-009>012-014-015-017-271700-
NORTHWEST OKLAHOMA AND THE PANHANDLE

CITY           SKY/WX    TMP DP  RH WIND       PRES   REMARKS
GAGE           MOSUNNY   80  65  59 NE10      29.81R
GUYMON         CLOUDY    67  59  75 N14       29.92R
ENID/WOODRING  PTSUNNY   84  70  61 S8        29.75S
$$

OKZ016-021>023-033>039-044-045-271700-
SOUTHWEST OKLAHOMA

CITY           SKY/WX    TMP DP  RH WIND       PRES   REMARKS
LAWTON/REGL    SUNNY     87  71  58 S12         N/A  HX  93
LAWTON/FT SILL SUNNY     85  73  66 SW10      29.76F HX  92
FREDERICK      SUNNY     88  62  41 SW16      29.75S
CLINTON        SUNNY     83  55  38 W10       29.80R
HOBART         MOSUNNY   86  49  27 W13       29.78R
ALTUS AFB      CLOUDY    87  43  21 W10       29.77S
$$

OKZ018>020-024>031-271700-
CENTRAL OKLAHOMA

CITY           SKY/WX    TMP DP  RH WIND       PRES   REMARKS
OKLAHOMA CITY  MOSUNNY   86  68  54 S18       29.74S
OKC/WILEY POST SUNNY     88  68  51 SW16      29.74R HX  91
OKC/TINKER AFB SUNNY     85  70  59 S20G29    29.74R HX  90
STILLWATER     MOSUNNY   84  71  65 SE6       29.75F
GUTHRIE        MOSUNNY   86  70  58 SW8       29.75  HX  90
$$

OKZ008-013-054>072-271700-
NORTHEAST OKLAHOMA

CITY           SKY/WX    TMP DP  RH WIND       PRES   REMARKS
TULSA          MOSUNNY   83  76  79 SE8       29.76F HX  91
TULSA/JONES    PTSUNNY   83  73  72 S8        29.78R
PONCA CITY     SUNNY     81  72  74 E8        29.77S
BARTLESVILLE   CLOUDY    77  72  84 SE5       29.79F HAZE
MUSKOGEE       PTSUNNY   83  74  74 S18G24    29.80F
$$

OKZ032-040>043-046>053-073>077-271700-
SOUTH CENTRAL/SOUTHEAST OKLAHOMA

CITY           SKY/WX    TMP DP  RH WIND       PRES   REMARKS
ARDMORE/DWNTWN CLOUDY    84  72  65 SW14G20   29.82F
MCALESTER      CLOUDY    84  75  74 S10G24    29.82F HX  92
$$





USA.gov is the U.S. government's official web portal to all federal, state and local government web resources and services.